Location: *
(43.4667°N, 11.6833°E)
Time: 00:29:15
(UTC+00:00)

NOSS 2-3 (C) - Pass Details

Date: 19 July 2019
Orbit: 600 x 1611 km, 63.4° (Epoch: 18 August)

Event Time Altitude Azimuth Distance (km) Brightness Sun altitude
Exits shadow 21:53:02 70° 161° (SSE) 703 3.5 -22.8°
Maximum altitude 21:53:22 74° 123° (ESE) 694 3.5 -22.8°
Drops below altitude 10° 21:58:26 10° 40° (NE) 2,298 6.8 -23.1°
Sets 22:01:06 0° 38° (NE) 3,367 7.8 -23.3°
